Location: Newark
(34.1333°N, 7.9667°W)
Time: 09:20:52
(UTC+00:00)

COSMOS 2251 DEB - Pass Details

Date: 25 February 2024
Orbit: 726 x 941 km, 73.7° (Epoch: 12 April)

Event Time Altitude Azimuth Distance (km) Brightness Sun altitude
Rises 05:38:42 0° 195° (SSW) 3,589 ? -18.9°
Reaches altitude 10° 05:41:13 10° 195° (SSW) 2,646 ? -18.4°
Maximum altitude 05:47:23 88° 107° (ESE) 933 ? -17.1°
Drops below altitude 10° 05:53:24 10° 18° (NNE) 2,585 ? -15.8°
Sets 05:55:51 0° 18° (NNE) 3,502 ? -15.3°
